When you browse on this site, cookies collect data to enhance your experience and personalize the content and advertising you see.
Visit our Privacy Policy to learn more. By continuing to use the site, you agree to this use of cookies and data.
  • en Suisse
  • Liste des pays
  • À 7 jours
  • Température de l'eau
  • Carte météo
  • Widgets météo
  • user-avatar
    Se connecter

    Météo par heure à Bolshoe Sonino

    Ce jour, 26 Août, Lundi

    Heure Température Précipitation Vent Pression Humidité
    00:00 +13°C° 0 mm 2 m/s 756 mmHg 90%
    01:00 +13°C° 0 mm 2 m/s 756 mmHg 92%
    02:00 +12°C° 0 mm 2 m/s 757 mmHg 93%
    03:00 +12°C° 0 mm 2 m/s 757 mmHg 93%
    04:00 +12°C° 0 mm 1 m/s 757 mmHg 94%
    05:00 +12°C° 0 mm 1 m/s 757 mmHg 94%
    06:00 +14°C° 0 mm 1 m/s 757 mmHg 87%
    07:00 +15°C° 0 mm 1 m/s 757 mmHg 81%
    08:00 +18°C° 0 mm 1 m/s 757 mmHg 75%
    09:00 +19°C° 0 mm 1 m/s 757 mmHg 70%
    10:00 +21°C° 0 mm 1 m/s 757 mmHg 66%
    11:00 +22°C° 0 mm 1 m/s 756 mmHg 62%
    12:00 +22°C° 0 mm 1 m/s 756 mmHg 61%
    13:00 +22°C° 0 mm 1 m/s 756 mmHg 61%
    14:00 +21°C° 0 mm 2 m/s 756 mmHg 60%
    15:00 +21°C° 0 mm 2 m/s 755 mmHg 63%
    16:00 +21°C° 0 mm 2 m/s 755 mmHg 66%
    17:00 +22°C° 0 mm 1 m/s 754 mmHg 69%
    18:00 +19°C° 0 mm 2 m/s 754 mmHg 73%
    19:00 +18°C° 0 mm 2 m/s 754 mmHg 77%
    20:00 +16°C° 0 mm 2 m/s 754 mmHg 81%
    21:00 +16°C° 0 mm 2 m/s 753 mmHg 82%
    22:00 +15°C° 0 mm 2 m/s 753 mmHg 84%
    23:00 +15°C° 0 mm 2 m/s 753 mmHg 85%

    Demain, 27 Août, Mardi

    Heure Température Précipitation Vent Pression Humidité
    00:00 +15°C° 0 mm 2 m/s 752 mmHg 86%
    01:00 +14°C° 0 mm 3 m/s 752 mmHg 87%
    02:00 +13°C° 0 mm 3 m/s 752 mmHg 88%
    03:00 +14°C° 0 mm 3 m/s 751 mmHg 88%
    04:00 +14°C° 0 mm 3 m/s 751 mmHg 88%
    05:00 +14°C° 0 mm 3 m/s 751 mmHg 88%
    06:00 +15°C° 0 mm 4 m/s 751 mmHg 86%
    07:00 +17°C° 0 mm 4 m/s 751 mmHg 85%
    08:00 +18°C° 0 mm 4 m/s 750 mmHg 83%
    09:00 +19°C° 0.4 mm 5 m/s 750 mmHg 80%
    10:00 +20°C° 0.4 mm 5 m/s 750 mmHg 77%
    11:00 +21°C° 0.4 mm 5 m/s 750 mmHg 75%
    12:00 +22°C° 0.1 mm 5 m/s 750 mmHg 70%
    13:00 +22°C° 0.1 mm 5 m/s 750 mmHg 66%
    14:00 +23°C° 0.1 mm 5 m/s 750 mmHg 62%
    15:00 +22°C° 0 mm 5 m/s 750 mmHg 64%
    16:00 +21°C° 0 mm 4 m/s 750 mmHg 66%
    17:00 +21°C° 0 mm 3 m/s 750 mmHg 68%
    18:00 +19°C° 0 mm 3 m/s 750 mmHg 70%
    19:00 +17°C° 0 mm 3 m/s 750 mmHg 72%
    20:00 +16°C° 0 mm 3 m/s 751 mmHg 75%
    21:00 +14°C° 0 mm 3 m/s 751 mmHg 79%
    22:00 +13°C° 0 mm 3 m/s 751 mmHg 84%
    23:00 +12°C° 0 mm 3 m/s 752 mmHg 88%

    Après-demain, 28 Août, Mercredi

    Heure Température Précipitation Vent Pression Humidité
    00:00 +13°C° 0 mm 2 m/s 752 mmHg 90%
    01:00 +12°C° 0 mm 2 m/s 752 mmHg 92%
    02:00 +10°C° 0 mm 2 m/s 752 mmHg 93%
    03:00 +10°C° 0 mm 2 m/s 753 mmHg 94%
    04:00 +9°C° 0 mm 3 m/s 753 mmHg 94%
    05:00 +9°C° 0 mm 3 m/s 753 mmHg 94%
    06:00 +10°C° 0 mm 3 m/s 753 mmHg 86%
    07:00 +11°C° 0 mm 4 m/s 754 mmHg 78%
    08:00 +13°C° 0 mm 4 m/s 754 mmHg 69%
    09:00 +14°C° 0 mm 4 m/s 754 mmHg 66%
    10:00 +15°C° 0 mm 4 m/s 754 mmHg 62%
    11:00 +16°C° 0 mm 5 m/s 754 mmHg 59%
    12:00 +16°C° 0 mm 5 m/s 754 mmHg 56%
    13:00 +17°C° 0 mm 5 m/s 754 mmHg 53%
    14:00 +17°C° 0 mm 5 m/s 754 mmHg 51%
    15:00 +17°C° 0 mm 4 m/s 754 mmHg 54%
    16:00 +17°C° 0 mm 3 m/s 754 mmHg 57%
    17:00 +16°C° 0 mm 3 m/s 754 mmHg 61%
    18:00 +13°C° 0 mm 3 m/s 754 mmHg 64%
    19:00 +13°C° 0 mm 2 m/s 755 mmHg 66%
    20:00 +10°C° 0 mm 2 m/s 755 mmHg 69%
    21:00 +9°C° 0 mm 2 m/s 755 mmHg 72%
    22:00 +9°C° 0 mm 2 m/s 755 mmHg 74%
    23:00 +8°C° 0 mm 2 m/s 755 mmHg 76%

    29 Août, Jeudi

    Heure Température Précipitation Vent Pression Humidité
    00:00 +8°C° 0 mm 2 m/s 756 mmHg 78%
    01:00 +7°C° 0 mm 2 m/s 756 mmHg 80%
    02:00 +8°C° 0 mm 1 m/s 756 mmHg 81%
    03:00 +8°C° 0 mm 1 m/s 756 mmHg 83%
    04:00 +8°C° 0 mm 1 m/s 756 mmHg 84%
    05:00 +7°C° 0 mm 1 m/s 756 mmHg 85%
    06:00 +9°C° 0 mm 1 m/s 756 mmHg 80%
    07:00 +11°C° 0 mm 1 m/s 756 mmHg 74%
    08:00 +13°C° 0 mm 1 m/s 756 mmHg 68%
    09:00 +14°C° 0 mm 1 m/s 756 mmHg 62%
    10:00 +15°C° 0 mm 1 m/s 756 mmHg 57%
    11:00 +17°C° 0 mm 2 m/s 756 mmHg 51%
    12:00 +19°C° 0 mm 1 m/s 756 mmHg 51%
    13:00 +19°C° 0 mm 1 m/s 755 mmHg 51%
    14:00 +20°C° 0 mm 1 m/s 755 mmHg 51%
    15:00 +20°C° 0 mm 1 m/s 755 mmHg 56%
    16:00 +20°C° 0 mm 1 m/s 754 mmHg 61%
    17:00 +17°C° 0 mm 0 m/s 754 mmHg 66%
    18:00 +18°C° 0 mm 1 m/s 754 mmHg 70%
    19:00 +15°C° 0 mm 1 m/s 754 mmHg 74%
    20:00 +13°C° 0 mm 1 m/s 754 mmHg 78%
    21:00 +13°C° 0 mm 1 m/s 754 mmHg 80%
    22:00 +13°C° 0 mm 1 m/s 754 mmHg 82%
    23:00 +12°C° 0 mm 1 m/s 753 mmHg 83%

    30 Août, Vendredi

    Heure Température Précipitation Vent Pression Humidité
    00:00 +12°C° 0 mm 2 m/s 753 mmHg 85%
    01:00 +12°C° 0 mm 2 m/s 753 mmHg 86%
    02:00 +10°C° 0 mm 2 m/s 753 mmHg 87%
    03:00 +10°C° 0 mm 2 m/s 753 mmHg 88%
    04:00 +10°C° 0 mm 2 m/s 753 mmHg 89%
    05:00 +10°C° 0 mm 2 m/s 752 mmHg 90%
    06:00 +11°C° 0 mm 3 m/s 752 mmHg 84%
    07:00 +13°C° 0 mm 3 m/s 752 mmHg 79%
    08:00 +16°C° 0 mm 3 m/s 752 mmHg 73%
    09:00 +18°C° 0 mm 3 m/s 752 mmHg 68%
    10:00 +19°C° 0 mm 3 m/s 752 mmHg 64%
    11:00 +21°C° 0 mm 3 m/s 752 mmHg 59%
    12:00 +21°C° 0 mm 3 m/s 752 mmHg 58%
    13:00 +22°C° 0 mm 3 m/s 752 mmHg 57%
    14:00 +22°C° 0 mm 3 m/s 752 mmHg 55%
    15:00 +22°C° 0 mm 3 m/s 751 mmHg 60%
    16:00 +21°C° 0 mm 2 m/s 751 mmHg 65%
    17:00 +20°C° 0 mm 2 m/s 751 mmHg 70%
    18:00 +19°C° 0 mm 2 m/s 752 mmHg 76%
    19:00 +17°C° 0 mm 2 m/s 752 mmHg 81%
    20:00 +15°C° 0 mm 1 m/s 752 mmHg 87%
    21:00 +14°C° 0 mm 1 m/s 752 mmHg 88%
    22:00 +14°C° 0 mm 1 m/s 752 mmHg 90%
    23:00 +13°C° 0 mm 1 m/s 752 mmHg 92%

    31 Août, Samedi

    Heure Température Précipitation Vent Pression Humidité
    00:00 +13°C° 0 mm 1 m/s 752 mmHg 93%
    01:00 +13°C° 0 mm 1 m/s 752 mmHg 93%
    02:00 +13°C° 0 mm 1 m/s 752 mmHg 94%
    03:00 +12°C° 0 mm 1 m/s 752 mmHg 94%
    04:00 +12°C° 0 mm 1 m/s 752 mmHg 93%
    05:00 +12°C° 0 mm 1 m/s 752 mmHg 93%
    06:00 +14°C° 0 mm 1 m/s 752 mmHg 87%
    07:00 +16°C° 0 mm 1 m/s 752 mmHg 80%
    08:00 +19°C° 0 mm 1 m/s 752 mmHg 73%
    09:00 +19°C° 0 mm 2 m/s 751 mmHg 68%
    10:00 +20°C° 0 mm 2 m/s 751 mmHg 63%
    11:00 +23°C° 0 mm 2 m/s 751 mmHg 58%
    12:00 +23°C° 0 mm 2 m/s 751 mmHg 57%
    13:00 +22°C° 0 mm 3 m/s 751 mmHg 56%
    14:00 +24°C° 0 mm 3 m/s 750 mmHg 55%
    15:00 +22°C° 0 mm 3 m/s 750 mmHg 59%
    16:00 +21°C° 0 mm 2 m/s 750 mmHg 63%
    17:00 +21°C° 0 mm 2 m/s 750 mmHg 67%
    18:00 +19°C° 0 mm 2 m/s 750 mmHg 71%
    19:00 +18°C° 0 mm 1 m/s 750 mmHg 75%
    20:00 +16°C° 0 mm 1 m/s 750 mmHg 78%
    21:00 +15°C° 0 mm 1 m/s 750 mmHg 80%
    22:00 +14°C° 0 mm 1 m/s 750 mmHg 82%
    23:00 +14°C° 0 mm 1 m/s 750 mmHg 84%
    Voir plus